Station Historical Data
Daily Summary for August 2, 2017 Units:  English    Metric   Both
« Previous Day
Next Day »
Daily Weekly Monthly Yearly Custom
  High: Low: Average:
Temperature: 85.3 °F 61.9 °F 74.2 °F
Dew Point: 67.2 °F 56.7 °F 62.8 °F
Humidity: 84% 50% 69%
Wind Speed: 10.0mph 0.0mph 2.4mph
Wind Gust: 16.0mph - -
Wind- - WSW
Pressure: 30.04 in 29.97 in -
Precipitation: 0.00 in    
Historical Graphs
 
 
Tabular Data for August 2, 2017
Time Temperature Dew Point Pressure Wind Wind Speed Wind Gust Humidity Rainfall Rate (Hourly)
00:04 69.8 °F 63.3 °F 30.02 in Calm     80% 0.00 in
00:09 69.6 °F 63.2 °F 30.02 in Calm     80% 0.00 in
00:14 69.4 °F 63.3 °F 30.02 in Calm     81% 0.00 in
00:19 69.0 °F 62.9 °F 30.02 in Calm     81% 0.00 in
00:24 68.8 °F 63.1 °F 30.02 in Calm     82% 0.00 in
00:29 68.6 °F 62.5 °F 30.02 in Calm     81% 0.00 in
00:34 68.4 °F 62.3 °F 30.02 in Calm     81% 0.00 in
00:39 68.4 °F 62.3 °F 30.02 in Calm     81% 0.00 in
00:44 68.2 °F 62.5 °F 30.02 in Calm     82% 0.00 in
00:49 68.1 °F 62.4 °F 30.02 in Calm     82% 0.00 in
00:54 67.9 °F 62.2 °F 30.02 in Calm     82% 0.00 in
00:59 67.7 °F 62.0 °F 30.02 in Calm     82% 0.00 in
01:04 67.8 °F 62.1 °F 30.02 in Calm     82% 0.00 in
01:09 67.6 °F 61.9 °F 30.02 in Calm     82% 0.00 in
01:14 67.4 °F 61.7 °F 30.02 in Calm     82% 0.00 in
01:19 67.3 °F 61.6 °F 30.02 in Calm     82% 0.00 in
01:24 67.2 °F 61.2 °F 30.02 in Calm     81% 0.00 in
01:29 67.4 °F 61.0 °F 30.02 in Calm     80% 0.00 in
01:34 67.5 °F 60.8 °F 30.02 in Calm     79% 0.00 in
01:39 67.5 °F 60.8 °F 30.02 in Calm     79% 0.00 in
01:44 67.5 °F 60.8 °F 30.02 in Calm     79% 0.00 in
01:49 67.3 °F 60.6 °F 30.02 in Calm     79% 0.00 in
01:54 67.1 °F 60.4 °F 30.02 in Calm     79% 0.00 in
01:59 66.9 °F 60.5 °F 30.01 in Calm     80% 0.00 in
02:04 66.8 °F 60.4 °F 30.02 in Calm     80% 0.00 in
02:09 66.8 °F 60.1 °F 30.01 in Calm     79% 0.00 in
02:14 66.5 °F 60.1 °F 30.02 in Calm     80% 0.00 in
02:19 66.3 °F 59.9 °F 30.01 in Calm     80% 0.00 in
02:24 66.2 °F 59.8 °F 30.01 in Calm     80% 0.00 in
02:29 66.3 °F 59.6 °F 30.01 in Calm     79% 0.00 in
02:34 66.3 °F 59.6 °F 30.01 in Calm     79% 0.00 in
02:39 66.3 °F 59.6 °F 30.01 in Calm     79% 0.00 in
02:44 66.1 °F 59.4 °F 30.01 in Calm     79% 0.00 in
02:49 65.9 °F 59.2 °F 30.00 in Calm     79% 0.00 in
02:54 65.6 °F 58.9 °F 30.00 in Calm     79% 0.00 in
02:59 65.4 °F 59.1 °F 30.00 in Calm     80% 0.00 in
03:04 65.3 °F 59.0 °F 30.00 in Calm     80% 0.00 in
03:09 65.2 °F 58.9 °F 30.00 in Calm     80% 0.00 in
03:14 65.2 °F 58.9 °F 30.00 in Calm     80% 0.00 in
03:19 65.1 °F 58.8 °F 30.00 in Calm     80% 0.00 in
03:24 65.0 °F 58.7 °F 30.00 in Calm     80% 0.00 in
03:29 65.1 °F 58.4 °F 30.01 in Calm     79% 0.00 in
03:34 65.0 °F 58.3 °F 30.01 in Calm     79% 0.00 in
03:39 64.8 °F 58.1 °F 30.01 in Calm     79% 0.00 in
03:44 64.5 °F 58.2 °F 30.01 in Calm     80% 0.00 in
03:49 64.1 °F 57.8 °F 30.00 in Calm     80% 0.00 in
03:54 63.8 °F 57.9 °F 30.00 in Calm     81% 0.00 in
03:59 63.8 °F 57.9 °F 30.00 in Calm     81% 0.00 in
04:09 63.6 °F 57.7 °F 30.00 in Calm     81% 0.00 in
04:14 63.5 °F 57.9 °F 30.00 in Calm     82% 0.00 in
04:19 63.2 °F 57.6 °F 30.00 in Calm     82% 0.00 in
04:24 63.1 °F 57.5 °F 30.01 in Calm     82% 0.00 in
04:29 62.8 °F 57.6 °F 30.01 in Calm     83% 0.00 in
04:34 62.8 °F 57.6 °F 30.01 in Calm     83% 0.00 in
04:39 62.7 °F 57.8 °F 30.01 in Calm     84% 0.00 in
04:44 62.6 °F 57.4 °F 30.01 in Calm     83% 0.00 in
04:49 62.5 °F 57.6 °F 30.01 in Calm     84% 0.00 in
04:54 62.7 °F 57.5 °F 30.01 in Calm     83% 0.00 in
04:59 62.5 °F 57.3 °F 30.01 in Calm     83% 0.00 in
05:04 62.4 °F 57.2 °F 30.01 in Calm     83% 0.00 in
05:09 62.4 °F 57.2 °F 30.01 in Calm     83% 0.00 in
05:14 62.6 °F 57.4 °F 30.01 in Calm     83% 0.00 in
05:19 62.7 °F 57.1 °F 30.02 in Calm     82% 0.00 in
05:24 62.8 °F 57.2 °F 30.02 in Calm     82% 0.00 in
05:29 62.7 °F 57.1 °F 30.01 in Calm     82% 0.00 in
05:34 62.5 °F 57.3 °F 30.02 in Calm     83% 0.00 in
05:39 62.2 °F 57.0 °F 30.02 in Calm     83% 0.00 in
05:44 62.1 °F 56.9 °F 30.02 in Calm     83% 0.00 in
05:49 62.0 °F 56.8 °F 30.02 in Calm     83% 0.00 in
05:54 61.9 °F 56.7 °F 30.02 in Calm     83% 0.00 in
05:59 62.1 °F 57.2 °F 30.02 in Calm     84% 0.00 in
06:04 62.1 °F 57.2 °F 30.02 in Calm     84% 0.00 in
06:09 62.1 °F 56.9 °F 30.02 in Calm     83% 0.00 in
06:14 62.1 °F 57.2 °F 30.03 in Calm     84% 0.00 in
06:19 62.1 °F 57.2 °F 30.03 in Calm     84% 0.00 in
06:24 62.2 °F 57.3 °F 30.02 in Calm     84% 0.00 in
06:29 62.3 °F 57.1 °F 30.03 in Calm     83% 0.00 in
06:34 62.5 °F 57.3 °F 30.03 in Calm     83% 0.00 in
06:39 62.7 °F 57.5 °F 30.03 in Calm     83% 0.00 in
06:44 63.0 °F 57.4 °F 30.04 in Calm     82% 0.00 in
06:49 63.4 °F 57.5 °F 30.03 in Calm     81% 0.00 in
06:54 63.8 °F 57.9 °F 30.03 in Calm     81% 0.00 in
06:59 64.2 °F 57.9 °F 30.03 in Calm     80% 0.00 in
07:04 64.7 °F 58.0 °F 30.03 in Calm     79% 0.00 in
07:09 65.2 °F 58.2 °F 30.04 in Calm     78% 0.00 in
07:14 65.6 °F 58.2 °F 30.04 in Calm     77% 0.00 in
07:19 66.4 °F 58.6 °F 30.04 in Calm     76% 0.00 in
07:24 67.0 °F 58.8 °F 30.04 in South 1.0 mph 4.0 mph 75% 0.00 in
07:29 67.5 °F 58.9 °F 30.04 in South 1.0 mph 4.0 mph 74% 0.00 in
07:34 67.8 °F 59.2 °F 30.04 in SSW 2.0 mph 3.0 mph 74% 0.00 in
07:39 68.2 °F 59.2 °F 30.04 in SSW 1.0 mph 4.0 mph 73% 0.00 in
07:44 68.1 °F 58.7 °F 30.04 in SSW 1.0 mph 4.0 mph 72% 0.00 in
07:49 68.1 °F 59.1 °F 30.04 in Calm   3.0 mph 73% 0.00 in
07:54 68.5 °F 59.5 °F 30.04 in Calm     73% 0.00 in
07:59 69.0 °F 59.6 °F 30.04 in Calm     72% 0.00 in
08:04 69.8 °F 60.4 °F 30.04 in Calm     72% 0.00 in
08:09 70.5 °F 60.6 °F 30.04 in Calm   1.0 mph 71% 0.00 in
08:14 71.1 °F 60.0 °F 30.04 in Calm   4.0 mph 68% 0.00 in
08:19 71.8 °F 61.1 °F 30.04 in SSW 2.0 mph 4.0 mph 69% 0.00 in
08:24 71.8 °F 60.7 °F 30.04 in SSW 1.0 mph 5.0 mph 68% 0.00 in
08:29 71.3 °F 60.6 °F 30.04 in Calm   3.0 mph 69% 0.00 in
08:34 71.2 °F 61.3 °F 30.04 in South 2.0 mph 2.0 mph 71% 0.00 in
08:39 71.2 °F 60.9 °F 30.04 in Calm   3.0 mph 70% 0.00 in
08:44 71.7 °F 61.8 °F 30.04 in South 1.0 mph 4.0 mph 71% 0.00 in
08:49 72.7 °F 62.3 °F 30.04 in South 1.0 mph 4.0 mph 70% 0.00 in
08:54 73.2 °F 61.6 °F 30.04 in SSW 2.0 mph 7.0 mph 67% 0.00 in
08:59 73.0 °F 61.4 °F 30.04 in SW 3.0 mph 5.0 mph 67% 0.00 in
09:04 73.0 °F 61.8 °F 30.04 in Calm   4.0 mph 68% 0.00 in
09:09 72.9 °F 61.7 °F 30.04 in SW 1.0 mph 4.0 mph 68% 0.00 in
09:14 72.8 °F 61.6 °F 30.04 in WSW 1.0 mph 4.0 mph 68% 0.00 in
09:19 72.8 °F 61.6 °F 30.04 in Calm   3.0 mph 68% 0.00 in
09:24 73.4 °F 62.6 °F 30.04 in SW 2.0 mph 4.0 mph 69% 0.00 in
09:29 74.6 °F 62.1 °F 30.04 in SW 2.0 mph 5.0 mph 65% 0.00 in
09:34 75.2 °F 63.5 °F 30.04 in SSW 2.0 mph 6.0 mph 67% 0.00 in
09:39 76.4 °F 65.1 °F 30.04 in SW 2.0 mph 6.0 mph 68% 0.00 in
09:44 77.1 °F 63.5 °F 30.04 in SW 2.0 mph 4.0 mph 63% 0.00 in
09:49 77.8 °F 63.3 °F 30.04 in WSW 2.0 mph 5.0 mph 61% 0.00 in
09:54 78.1 °F 64.5 °F 30.04 in West 2.0 mph 5.0 mph 63% 0.00 in
09:59 78.8 °F 63.7 °F 30.04 in SW 6.0 mph 9.0 mph 60% 0.00 in
10:04 79.1 °F 64.5 °F 30.03 in SW 2.0 mph 6.0 mph 61% 0.00 in
10:09 79.5 °F 64.4 °F 30.03 in SW 3.0 mph 8.0 mph 60% 0.00 in
10:14 79.6 °F 64.5 °F 30.03 in WSW 4.0 mph 8.0 mph 60% 0.00 in
10:19 79.6 °F 65.0 °F 30.03 in WSW 5.0 mph 8.0 mph 61% 0.00 in
10:24 80.4 °F 66.2 °F 30.03 in WSW 4.0 mph 8.0 mph 62% 0.00 in
10:29 81.1 °F 65.4 °F 30.03 in WSW 2.0 mph 8.0 mph 59% 0.00 in
10:34 81.2 °F 66.0 °F 30.03 in West 3.0 mph 7.0 mph 60% 0.00 in
10:39 81.2 °F 65.0 °F 30.03 in WSW 4.0 mph 10.0 mph 58% 0.00 in
10:44 81.1 °F 64.4 °F 30.03 in WSW 4.0 mph 10.0 mph 57% 0.00 in
10:49 81.0 °F 64.3 °F 30.03 in WNW 4.0 mph 7.0 mph 57% 0.00 in
10:54 81.1 °F 64.9 °F 30.03 in WSW 6.0 mph 7.0 mph 58% 0.00 in
10:59 81.4 °F 64.2 °F 30.03 in SW 9.0 mph 9.0 mph 56% 0.00 in
11:04 81.3 °F 64.6 °F 30.03 in West 7.0 mph 11.0 mph 57% 0.00 in
11:09 81.7 °F 63.4 °F 30.03 in WSW 5.0 mph 11.0 mph 54% 0.00 in
11:14 81.5 °F 63.8 °F 30.03 in WSW 5.0 mph 11.0 mph 55% 0.00 in
11:19 81.7 °F 64.0 °F 30.03 in WSW 5.0 mph 11.0 mph 55% 0.00 in
11:24 81.8 °F 63.5 °F 30.03 in West 5.0 mph 11.0 mph 54% 0.00 in
11:29 82.1 °F 63.3 °F 30.03 in SW 9.0 mph 11.0 mph 53% 0.00 in
11:34 81.9 °F 63.6 °F 30.03 in WSW 7.0 mph 12.0 mph 54% 0.00 in
11:39 82.0 °F 63.2 °F 30.03 in WSW 6.0 mph 12.0 mph 53% 0.00 in
11:44 82.4 °F 64.1 °F 30.03 in WSW 9.0 mph 12.0 mph 54% 0.00 in
11:49 82.4 °F 64.6 °F 30.03 in WNW 6.0 mph 11.0 mph 55% 0.00 in
11:54 82.4 °F 63.5 °F 30.03 in West 4.0 mph 13.0 mph 53% 0.00 in
11:59 82.6 °F 63.7 °F 30.03 in West 3.0 mph 12.0 mph 53% 0.00 in
12:04 82.9 °F 62.4 °F 30.03 in WSW 5.0 mph 13.0 mph 50% 0.00 in
12:09 82.4 °F 63.5 °F 30.03 in West 6.0 mph 13.0 mph 53% 0.00 in
12:14 83.2 °F 63.7 °F 30.03 in West 6.0 mph 13.0 mph 52% 0.00 in
12:19 82.9 °F 62.9 °F 30.02 in West 6.0 mph 12.0 mph 51% 0.00 in
12:24 83.0 °F 63.0 °F 30.02 in WSW 6.0 mph 12.0 mph 51% 0.00 in
12:29 83.2 °F 64.3 °F 30.02 in West 6.0 mph 12.0 mph 53% 0.00 in
12:34 83.5 °F 64.6 °F 30.02 in West 8.0 mph 13.0 mph 53% 0.00 in
12:39 83.2 °F 63.7 °F 30.02 in West 7.0 mph 13.0 mph 52% 0.00 in
12:44 83.0 °F 64.6 °F 30.02 in West 7.0 mph 13.0 mph 54% 0.00 in
12:49 82.7 °F 64.4 °F 30.02 in West 7.0 mph 13.0 mph 54% 0.00 in
12:54 82.7 °F 64.4 °F 30.02 in West 8.0 mph 10.0 mph 54% 0.00 in
12:59 83.1 °F 63.1 °F 30.02 in WSW 3.0 mph 11.0 mph 51% 0.00 in
13:04 83.1 °F 64.2 °F 30.02 in WSW 6.0 mph 9.0 mph 53% 0.00 in
13:09 83.6 °F 65.2 °F 30.02 in WSW 5.0 mph 11.0 mph 54% 0.00 in
13:14 83.9 °F 65.5 °F 30.02 in WSW 6.0 mph 10.0 mph 54% 0.00 in
13:19 83.5 °F 64.6 °F 30.01 in SW 9.0 mph 12.0 mph 53% 0.00 in
13:24 83.8 °F 64.8 °F 30.01 in SW 9.0 mph 10.0 mph 53% 0.00 in
13:29 84.1 °F 65.7 °F 30.01 in West 5.0 mph 10.0 mph 54% 0.00 in
13:34 84.4 °F 65.9 °F 30.01 in WSW 5.0 mph 10.0 mph 54% 0.00 in
13:39 84.0 °F 65.6 °F 30.01 in WSW 5.0 mph 11.0 mph 54% 0.00 in
13:44 84.0 °F 66.1 °F 30.01 in SW 5.0 mph 11.0 mph 55% 0.00 in
13:49 84.0 °F 65.6 °F 30.01 in WSW 5.0 mph 11.0 mph 54% 0.00 in
13:54 84.5 °F 65.5 °F 30.01 in West 5.0 mph 11.0 mph 53% 0.00 in
13:59 83.7 °F 65.8 °F 30.01 in West 7.0 mph 14.0 mph 55% 0.00 in
14:04 84.3 °F 65.8 °F 30.00 in SW 5.0 mph 9.0 mph 54% 0.00 in
14:09 84.3 °F 64.8 °F 30.00 in WSW 5.0 mph 10.0 mph 52% 0.00 in
14:14 83.9 °F 64.9 °F 30.00 in WSW 6.0 mph 11.0 mph 53% 0.00 in
14:19 84.2 °F 65.8 °F 30.00 in SW 9.0 mph 12.0 mph 54% 0.00 in
14:24 84.1 °F 65.1 °F 30.00 in WNW 7.0 mph 12.0 mph 53% 0.00 in
14:29 84.6 °F 67.2 °F 29.99 in West 10.0 mph 14.0 mph 56% 0.00 in
14:34 84.2 °F 64.7 °F 29.99 in WSW 4.0 mph 11.0 mph 52% 0.00 in
14:39 85.2 °F 66.1 °F 29.99 in WSW 5.0 mph 11.0 mph 53% 0.00 in
14:44 85.0 °F 65.4 °F 30.00 in WSW 5.0 mph 11.0 mph 52% 0.00 in
14:49 85.3 °F 65.1 °F 29.99 in WSW 5.0 mph 11.0 mph 51% 0.00 in
14:54 85.0 °F 64.8 °F 30.00 in SW 6.0 mph 14.0 mph 51% 0.00 in
14:59 84.9 °F 64.2 °F 29.99 in WSW 4.0 mph 11.0 mph 50% 0.00 in
15:04 84.6 °F 63.9 °F 29.99 in SSW 6.0 mph 12.0 mph 50% 0.00 in
15:09 84.8 °F 65.8 °F 29.99 in WSW 6.0 mph 12.0 mph 53% 0.00 in
15:14 84.7 °F 64.0 °F 29.99 in WSW 6.0 mph 12.0 mph 50% 0.00 in
15:19 84.4 °F 64.3 °F 29.98 in WSW 6.0 mph 14.0 mph 51% 0.00 in
15:24 84.3 °F 64.2 °F 29.98 in SSW 3.0 mph 14.0 mph 51% 0.00 in
15:29 84.5 °F 63.8 °F 29.98 in West 3.0 mph 12.0 mph 50% 0.00 in
15:34 84.2 °F 63.5 °F 29.98 in WSW 7.0 mph 12.0 mph 50% 0.00 in
15:39 84.0 °F 65.0 °F 29.97 in WSW 7.0 mph 12.0 mph 53% 0.00 in
15:44 84.3 °F 64.8 °F 29.97 in SW 7.0 mph 13.0 mph 52% 0.00 in
15:49 84.4 °F 64.9 °F 29.97 in WSW 6.0 mph 13.0 mph 52% 0.00 in
15:54 85.1 °F 64.9 °F 29.97 in West 5.0 mph 11.0 mph 51% 0.00 in
15:59 84.4 °F 64.3 °F 29.97 in West 4.0 mph 13.0 mph 51% 0.00 in
16:04 84.7 °F 64.0 °F 29.97 in West 9.0 mph 13.0 mph 50% 0.00 in
16:09 84.4 °F 63.7 °F 29.97 in West 6.0 mph 13.0 mph 50% 0.00 in
16:14 84.1 °F 64.0 °F 29.97 in West 6.0 mph 11.0 mph 51% 0.00 in
16:19 83.0 °F 63.6 °F 29.97 in WSW 6.0 mph 14.0 mph 52% 0.00 in
16:24 82.6 °F 63.2 °F 29.97 in SW 8.0 mph 12.0 mph 52% 0.00 in
16:29 82.3 °F 63.5 °F 29.97 in WSW 7.0 mph 11.0 mph 53% 0.00 in
16:34 83.2 °F 64.3 °F 29.97 in WSW 8.0 mph 8.0 mph 53% 0.00 in
16:39 83.4 °F 64.5 °F 29.97 in WSW 6.0 mph 13.0 mph 53% 0.00 in
16:44 83.2 °F 63.7 °F 29.97 in WSW 7.0 mph 13.0 mph 52% 0.00 in
16:49 83.3 °F 63.3 °F 29.97 in WSW 7.0 mph 13.0 mph 51% 0.00 in
16:54 83.0 °F 64.6 °F 29.98 in WSW 6.0 mph 13.0 mph 54% 0.00 in
16:59 83.2 °F 64.3 °F 29.97 in West 5.0 mph 11.0 mph 53% 0.00 in
17:04 83.3 °F 64.4 °F 29.98 in West 6.0 mph 12.0 mph 53% 0.00 in
17:09 82.8 °F 63.9 °F 29.98 in WSW 9.0 mph 12.0 mph 53% 0.00 in
17:14 82.2 °F 64.4 °F 29.98 in West 6.0 mph 12.0 mph 55% 0.00 in
17:19 81.9 °F 64.7 °F 29.98 in WSW 8.0 mph 13.0 mph 56% 0.00 in
17:24 81.3 °F 64.6 °F 29.98 in SW 5.0 mph 16.0 mph 57% 0.00 in
17:29 80.9 °F 65.7 °F 29.97 in WSW 6.0 mph 8.0 mph 60% 0.00 in
17:34 80.6 °F 65.4 °F 29.98 in WSW 8.0 mph 9.0 mph 60% 0.00 in
17:39 80.4 °F 65.2 °F 29.98 in WSW 5.0 mph 10.0 mph 60% 0.00 in
17:44 80.2 °F 66.0 °F 29.98 in WSW 5.0 mph 10.0 mph 62% 0.00 in
17:49 80.0 °F 66.3 °F 29.98 in West 7.0 mph 9.0 mph 63% 0.00 in
17:54 79.7 °F 66.0 °F 29.98 in WSW 5.0 mph 10.0 mph 63% 0.00 in
17:59 79.3 °F 66.5 °F 29.98 in WSW 4.0 mph 8.0 mph 65% 0.00 in
18:04 79.1 °F 66.3 °F 29.98 in WSW 4.0 mph 8.0 mph 65% 0.00 in
18:09 78.9 °F 66.6 °F 29.99 in WSW 4.0 mph 9.0 mph 66% 0.00 in
18:14 78.5 °F 66.6 °F 29.99 in WSW 3.0 mph 8.0 mph 67% 0.00 in
18:19 78.2 °F 67.2 °F 29.99 in WSW 7.0 mph 8.0 mph 69% 0.00 in
18:24 78.1 °F 66.7 °F 29.99 in SSW 5.0 mph 10.0 mph 68% 0.00 in
18:29 78.1 °F 66.7 °F 29.99 in South 4.0 mph 9.0 mph 68% 0.00 in
18:34 78.0 °F 66.6 °F 29.99 in SSW 2.0 mph 8.0 mph 68% 0.00 in
18:39 78.0 °F 66.6 °F 29.99 in SW 4.0 mph 8.0 mph 68% 0.00 in
18:44 77.9 °F 66.5 °F 29.99 in SW 4.0 mph 7.0 mph 68% 0.00 in
18:49 77.9 °F 66.9 °F 29.99 in SW 3.0 mph 7.0 mph 69% 0.00 in
18:54 77.9 °F 66.5 °F 29.99 in West 8.0 mph 8.0 mph 68% 0.00 in
18:59 78.0 °F 66.6 °F 29.99 in WSW 2.0 mph 8.0 mph 68% 0.00 in
19:04 78.1 °F 66.7 °F 29.99 in WSW 3.0 mph 7.0 mph 68% 0.00 in
19:09 78.0 °F 66.6 °F 29.99 in WSW 3.0 mph 8.0 mph 68% 0.00 in
19:14 77.8 °F 66.4 °F 29.99 in WSW 3.0 mph 8.0 mph 68% 0.00 in
19:19 77.8 °F 66.8 °F 29.99 in WSW 3.0 mph 8.0 mph 69% 0.00 in
19:24 77.8 °F 66.8 °F 29.99 in WSW 1.0 mph 5.0 mph 69% 0.00 in
19:29 77.6 °F 66.6 °F 29.99 in SW 2.0 mph 6.0 mph 69% 0.00 in
19:34 77.3 °F 66.3 °F 29.99 in WSW 3.0 mph 7.0 mph 69% 0.00 in
19:39 77.1 °F 66.6 °F 29.99 in WSW 3.0 mph 7.0 mph 70% 0.00 in
19:44 76.8 °F 66.7 °F 29.99 in West 1.0 mph 4.0 mph 71% 0.00 in
19:49 76.7 °F 66.6 °F 29.99 in WSW 1.0 mph 6.0 mph 71% 0.00 in
19:54 76.6 °F 66.5 °F 29.99 in WSW 2.0 mph 4.0 mph 71% 0.00 in
19:59 76.3 °F 66.2 °F 29.99 in WSW 1.0 mph 4.0 mph 71% 0.00 in
20:04 76.1 °F 66.4 °F 29.99 in WSW 2.0 mph 2.0 mph 72% 0.00 in
20:09 76.0 °F 66.3 °F 29.99 in WSW 1.0 mph 3.0 mph 72% 0.00 in
20:14 75.8 °F 66.1 °F 29.99 in Calm   3.0 mph 72% 0.00 in
20:19 75.6 °F 66.3 °F 29.99 in Calm     73% 0.00 in
20:24 75.3 °F 66.0 °F 29.99 in Calm     73% 0.00 in
20:29 75.1 °F 66.2 °F 29.99 in Calm     74% 0.00 in
20:34 74.8 °F 66.0 °F 29.99 in Calm     74% 0.00 in
20:39 74.6 °F 66.1 °F 29.99 in Calm     75% 0.00 in
20:44 74.4 °F 66.0 °F 29.99 in Calm     75% 0.00 in
20:49 74.0 °F 65.6 °F 30.00 in Calm     75% 0.00 in
20:54 73.9 °F 65.9 °F 29.99 in Calm     76% 0.00 in
20:59 73.8 °F 65.8 °F 30.00 in Calm   2.0 mph 76% 0.00 in
21:04 73.7 °F 66.0 °F 30.00 in Calm   2.0 mph 77% 0.00 in
21:09 73.7 °F 66.0 °F 30.00 in Calm   1.0 mph 77% 0.00 in
21:14 73.5 °F 65.8 °F 30.00 in Calm     77% 0.00 in
21:19 73.2 °F 65.6 °F 30.00 in Calm     77% 0.00 in
21:24 73.3 °F 65.7 °F 30.00 in Calm     77% 0.00 in
21:29 73.1 °F 65.8 °F 30.00 in Calm     78% 0.00 in
21:34 73.0 °F 65.7 °F 30.00 in Calm     78% 0.00 in
21:39 72.9 °F 65.6 °F 30.00 in Calm     78% 0.00 in
21:44 73.0 °F 66.1 °F 30.00 in Calm     79% 0.00 in
21:49 73.0 °F 66.1 °F 30.00 in Calm     79% 0.00 in
21:54 72.9 °F 66.0 °F 30.00 in Calm     79% 0.00 in
21:59 72.7 °F 66.2 °F 30.00 in Calm     80% 0.00 in
22:04 72.6 °F 66.4 °F 30.00 in Calm     81% 0.00 in
22:09 72.6 °F 66.4 °F 30.00 in Calm     81% 0.00 in
22:14 72.6 °F 66.4 °F 30.00 in Calm     81% 0.00 in
22:19 72.7 °F 66.2 °F 30.00 in Calm     80% 0.00 in
22:24 72.8 °F 66.3 °F 30.00 in Calm     80% 0.00 in
22:29 72.8 °F 65.9 °F 30.00 in Calm   4.0 mph 79% 0.00 in
22:34 72.7 °F 65.4 °F 30.00 in Calm   2.0 mph 78% 0.00 in
22:39 72.5 °F 64.9 °F 30.00 in Calm   2.0 mph 77% 0.00 in
22:44 72.5 °F 64.9 °F 30.00 in Calm   3.0 mph 77% 0.00 in
22:49 72.5 °F 64.5 °F 30.01 in SSW 2.0 mph 3.0 mph 76% 0.00 in
22:54 72.2 °F 64.2 °F 30.01 in Calm   3.0 mph 76% 0.00 in
22:59 72.0 °F 64.4 °F 30.01 in Calm     77% 0.00 in
23:04 71.8 °F 64.2 °F 30.01 in Calm   3.0 mph 77% 0.00 in
23:09 71.6 °F 64.0 °F 30.01 in Calm   3.0 mph 77% 0.00 in
23:19 71.3 °F 63.3 °F 30.01 in Calm     76% 0.00 in
23:24 71.2 °F 63.2 °F 30.01 in Calm     76% 0.00 in
23:25 71.2 °F 63.2 °F 30.01 in Calm     76% 0.00 in
23:29 71.0 °F 63.4 °F 30.02 in Calm     77% 0.00 in
23:34 70.8 °F 63.2 °F 30.02 in Calm   2.0 mph 77% 0.00 in
23:39 70.8 °F 63.2 °F 30.02 in SSW 1.0 mph 3.0 mph 77% 0.00 in
23:44 70.8 °F 63.2 °F 30.02 in Calm   1.0 mph 77% 0.00 in
23:49 70.9 °F 63.3 °F 30.02 in Calm     77% 0.00 in
23:54 70.9 °F 63.3 °F 30.02 in Calm     77% 0.00 in
23:59 70.8 °F 63.2 °F 30.02 in Calm   1.0 mph 77% 0.00 in
Buffalo, New York, USA
Compliments of Weather Underground - 2.5 mb